Вернуться в каталог

FENGYUN 1C DEB

АктивенSSO
NORAD 31716·DEBRIS·🇨🇳 China

Запущен May 10, 1999 с Taiyuan Satellite Launch Center

Loading…

Ближайшие Пролёты (ближайшие 24 часа)

TLE

СвежийSource: Space-Track

Эпоха: Sep 14, 2026, 15:52 UTC

1 31716U 99025CDP 26257.66171422  .00001256  00000-0  74983-3 0  9992
2 31716  98.5390 145.5258 0130970  34.0651 355.7660 14.04699227979925

Отслеживайте FENGYUN 1C DEB в реальном времени с AllMySat

Download on the App Store